# Land Stadt Wetter Temperatur Luftdruck Luftfeuchtigkeit Sichtweite Windgeschwindigkeit Windrichtung Ortszeit
1 in Jagatsukh Clouds 6 1012 99 27 21 203 02.08.2018 14:22
2 ru Amderma Snow -10 995 92 247 29 226 02.08.2018 14:23
3 in Mumbai Smoke 26 1013 57 2500 9 80 02.08.2018 14:22
4 ca Montreal Snow -11 1005 82 3219 13 140 02.08.2018 14:22
5 it Mailand Mist 8 1024 86 4000 2 0 02.08.2018 14:21
6 se Stockholm Snow 1 1010 95 4700 9 130 02.08.2018 14:23
7 us Los Angeles Rain 14 1023 93 4828 22 150 02.08.2018 14:22
8 id Jakarta Haze 31 1011 87 5000 6 40 02.08.2018 14:22
9 it Rom Mist 10 1020 77 5000 6 40 02.08.2018 14:23
10 in Nagpur Haze 33 1012 27 5000 9 190 02.08.2018 14:21
11 mn Ulaanbaatar Clear -39 1031 60 6000 0 0 02.08.2018 14:23
12 fr Paris Fog 8 1032 97 6000 11 230 02.08.2018 14:22
13 ch Andermatt Rain 3 1032 90 6753 13 327 02.08.2018 14:23
14 mv Male Clouds 32 1013 70 7000 26 80 02.08.2018 14:23
15 ma Casablanca Clouds 17 1027 88 8000 7 40 02.08.2018 14:23
16 ru Anadyr Snow -13 996 78 9000 22 20 02.08.2018 14:23
17 bg Sofia Clouds 5 1025 82 9000 17 110 02.08.2018 14:21
18 gr Athen Clouds 11 1021 76 10000 14 42 02.08.2018 14:22
19 de Helgoland Rain 7 1020 95 10000 40 199 02.08.2018 14:22
20 de Torfhaus Rain 6 1024 100 10000 19 215 02.08.2018 14:22
21 us Fairbanks Clouds -13 1001 82 10000 11 30 02.08.2018 14:23
22 es Barcelona Clear 13 1027 71 10000 10 266 02.08.2018 14:22
23 pt Lissabon Clear 15 1037 82 10000 6 0 02.08.2018 14:22
24 is Reykjavik Clouds 6 1003 93 10000 15 140 02.08.2018 14:22
25 za Kapstadt Clear 21 1010 63 10000 11 340 02.08.2018 14:22
26 no Hammerfest Clouds -5 1004 63 10000 13 360 02.08.2018 14:22
27 de Freiburg Clouds 11 1030 85 10000 9 221 02.08.2018 14:22
28 eg Kairo Clouds 20 1019 34 10000 20 90 02.08.2018 14:22
29 sb Honiara Clouds 26 1009 89 10000 6 280 02.08.2018 14:22
30 es Sevilla Clear 16 1029 71 10000 13 50 02.08.2018 14:22
31 es Palma de Mallorca Clouds 16 1026 75 10000 2 45 02.08.2018 14:22
32 us Death Valley Clouds 17 1017 70 10000 12 192 02.08.2018 14:22
33 br Rio de Janeiro Clouds 24 1006 94 10000 6 350 02.08.2018 14:22
34 jp Tokio Clouds 17 1016 76 10000 20 60 02.08.2018 14:22
35 ru Moskau Clouds -7 1029 89 10000 14 184 02.08.2018 14:22
36 gl Nuuk Clouds 1 975 60 10000 32 50 02.08.2018 14:22
37 ru Werchojansk Clouds -42 1024 97 10000 3 252 02.08.2018 14:22
38 mn Uliastai Clouds -29 1048 74 10000 8 79 02.08.2018 14:23
39 bo Potisi Clouds 8 1018 80 10000 3 298 02.08.2018 14:22
40 it Palermo Clouds 18 1011 72 10000 3 342 02.08.2018 14:22
41 at Wien Clouds 13 1029 57 10000 6 10 02.08.2018 14:22
42 cn Peking Clouds -3 1036 24 10000 6 119 02.08.2018 14:23
43 pe Cusco Clouds 10 1030 93 10000 0 0 02.08.2018 14:23
44 no Oslo Clouds -1 1014 95 10000 2 326 02.08.2018 14:23
45 tr Ankara Clouds 4 1021 71 10000 6 220 02.08.2018 14:23
46 qa Doha Clear 19 1016 59 10000 22 330 02.08.2018 14:23
47 nz Wellington Clouds 11 1020 76 10000 6 50 02.08.2018 14:23
48 cd Kisangani Clouds 36 1008 38 10000 6 175 02.08.2018 14:23
49 cl Santiago Clouds 18 984 71 10000 2 255 02.08.2018 14:23
50 us Chicago Clear 0 1024 78 10000 9 150 02.08.2018 14:23
51 at Innsbruck Clouds 8 1028 81 10000 9 70 02.08.2018 14:23
52 ch Bern Rain 8 1032 88 10000 6 246 02.08.2018 14:23
53 tr Istanbul Clouds 4 1024 87 10000 11 40 02.08.2018 14:23
54 us Nome Snow -3 1000 93 10000 22 110 02.08.2018 14:23
55 ke Nairobi Clouds 30 1018 27 10000 22 80 02.08.2018 14:22
56 iq Bagdad Clouds 19 1017 52 10000 17 320 02.08.2018 14:22
57 cn Lhasa Clouds 3 1011 45 10000 7 186 02.08.2018 14:22
58 ru Surgut Clear -17 1031 68 10000 26 190 02.08.2018 14:23
59 et Addis Abeba Clouds 16 1016 77 10000 5 150 02.08.2018 14:23
60 au Darwin Clouds 32 1010 75 10000 22 320 02.08.2018 14:22
61 ar Ushuaia Clouds 9 1005 66 10000 13 190 02.08.2018 14:22
62 uy Montevideo Clouds 21 1013 94 10000 15 180 02.08.2018 14:22
63 ru Jakutsk Snow -32 1023 67 10000 4 130 02.08.2018 14:22
64 es Madrid Clear 8 1033 78 10000 4 0 02.08.2018 14:23
65 us Miami Clouds 17 1011 96 10000 13 330 02.08.2018 14:23
66 ma Marrakesch Clear 14 1028 62 10000 6 140 02.08.2018 14:23
67 ck Avarua Clouds 25 1011 73 10000 11 110 02.08.2018 14:22
68 ae Dubai Clear 17 1015 77 10000 11 180 02.08.2018 14:21
69 th Bangkok Clouds 30 1010 76 10000 19 175 02.08.2018 14:21
70 br Manaus Clear 26 1011 73 10000 6 60 02.08.2018 14:21
71 do Santo Domingo Clear 23 1017 90 10000 7 343 02.08.2018 14:21
72 es Tarifa Clear 16 1029 73 10000 25 78 02.08.2018 14:21
73 de Braunschweig Clouds 10 1024 72 10000 22 260 02.08.2018 14:21
74 de Köln Clouds 9 1026 83 10000 17 270 02.08.2018 14:21
75 fr Bordeaux Clouds 12 1035 76 10000 7 200 02.08.2018 14:21
76 ph Manila Clouds 27 1016 70 10000 11 120 02.08.2018 14:21
77 de Berlin Clouds 8 997 90 10000 19 260 02.08.2018 14:21
78 fj Suva Clouds 25 1007 100 10000 0 0 02.08.2018 14:21
79 au Alice Springs Clouds 34 1010 27 10000 35 170 02.08.2018 14:21
80 de Hamburg Drizzle 7 1021 96 10000 22 290 02.08.2018 14:21
81 de München Rain 5 1028 94 10000 6 270 02.08.2018 14:21
82 af Kabul Clear -9 1025 72 10000 7 226 02.08.2018 14:21
83 us Denver Clouds 3 1015 49 10000 2 0 02.08.2018 14:21
84 sa Riad Clear 16 1019 33 10000 22 135 02.08.2018 14:21
85 es Las Palmas de Gran Canaria Clouds 20 1026 80 10000 15 51 02.08.2018 14:21
86 ie Dublin Rain 13 1017 82 10000 33 220 02.08.2018 14:21
87 mx Mexiko Stadt Clear 12 1015 46 10000 2 0 02.08.2018 14:21
88 fi Helsinki Clouds 0 1013 79 10000 16 199 02.08.2018 14:21
89 ua Kiew Clouds -1 1018 72 10000 2 210 02.08.2018 14:21
90 de Kassel Clouds 8 1023 87 10000 20 290 02.08.2018 14:21
91 us Las Vegas Clouds 19 1015 41 10000 11 220 02.08.2018 14:21
92 us Tucson Clouds 13 1021 34 10000 7 136 02.08.2018 14:21
93 mx Veracruz Clouds 22 1021 68 10000 9 80 02.08.2018 14:21
94 de Nürnberg Clouds 7 1024 88 10000 13 270 02.08.2018 14:21
95 de Hannover Clouds 10 1026 82 10000 20 250 02.08.2018 14:21
96 de Oberstdorf Clouds 11 1029 72 10000 5 133 02.08.2018 14:21
97 de Trier Clouds 9 1028 92 10000 13 250 02.08.2018 14:21
98 mg Antananarivo Clouds 24 1018 61 10000 13 120 02.08.2018 14:21
99 jp Nagasaki Clouds 15 1018 93 10000 3 350 02.08.2018 14:21
100 de Bremen Rain 9 1020 91 10000 26 180 02.08.2018 14:22
101 us Honolulu Clouds 23 1021 51 10000 37 50 02.08.2018 14:22
102 bs Nassau Clouds 21 1018 83 10000 20 340 02.08.2018 14:22
103 de Stuttgart Rain 9 1026 90 10000 11 250 02.08.2018 14:22
104 ec San Cristobal Rain 27 1011 85 10000 19 246 02.08.2018 14:22
105 bo La Paz Fog 11 1038 82 10000 9 120 02.08.2018 14:22
106 ar Esquel Clouds 16 1010 83 10000 9 261 02.08.2018 14:22
107 de Magdeburg Clouds 8 1021 88 10000 13 283 02.08.2018 14:22
108 tr Alanya Clear 9 1020 81 10000 16 308 02.08.2018 14:22
109 gb London Clouds 7 1030 88 10000 11 220 02.08.2018 14:22
110 au Sydney Rain 20 1018 74 10000 9 143 02.08.2018 14:22
111 us New York Clear 1 1027 38 10000 22 340 02.08.2018 14:22
112 fr Nizza Clear 16 1023 61 10000 13 330 02.08.2018 14:22
113 de Frankfurt Clouds 10 1028 82 10000 15 200 02.08.2018 14:22
114 de Dresden Clouds 7 1017 93 10000 13 280 02.08.2018 14:22
115 bg Warna Clouds 4 1026 75 10000 6 80 02.08.2018 14:21
116 fi Rovaniemi Snow -9 1007 92 10000 9 50 02.08.2018 14:21
117 gb Glasgow Clouds 11 1022 82 10000 20 240 02.08.2018 14:21
118 gb Manchester Clouds 11 1025 90 10000 24 280 02.08.2018 14:21
119 de Flensburg Clouds 6 1021 95 10000 16 257 02.08.2018 14:21
120 de Hiddensee Clouds 5 1027 85 10000 30 161 02.08.2018 14:21
121 de Emden Clouds 8 1023 94 10000 18 250 02.08.2018 14:21
122 pg Port Moresby Clouds 26 1010 87 10000 10 309 02.08.2018 14:21
123 au Perth Clear 28 1005 41 10000 15 50 02.08.2018 14:21
124 vn Hanoi Clouds 23 1009 88 10000 14 153 02.08.2018 14:21
125 cn Shanghai Clouds 9 1021 93 10000 14 50 02.08.2018 14:21
126 kr Seoul Mist 5 1023 84 10000 9 340 02.08.2018 14:21
127 ad Andorra la Vella Clouds 7 1034 64 10000 14 9 02.08.2018 14:22
128 ar Buenos Aires Clouds 23 1011 83 10000 13 80 02.08.2018 14:22